Date String (YYYY-MM-DD hh:mm:ss) UTC,Instrument flags,absolute air pressure of the measurement (hPa),sample flow rate (lpm),inlet stack bypass flow (lpm),air temperature of the measurement (°C),ambient temperature measured by the external sensor (°C),aerosol sample conditioner tube jacket temperature (°C),OPC LED temperature (°C),internal box temperature (°C),relative humidity of the measurement (%),span deviation,mass concentration of particles derived from Lorenz-Mie calculation of OPC scattering (μg/m³),mass concentration of particles derived from Lorenz-Mie calculation of OPC scattering (μg/m³),mass concentration of particles derived from Lorenz-Mie calculation of OPC scattering (μg/m³)
DateTimeUTC,F1_M11,P_M11,Q1_M11,Q2_M11,T1_M11,T2_M11,T3_M11,T4_M11,T5_M11,U1_M11,ZSPAN_M11,X2_M11,X0_M11,X1_M11
2024-03-29 00:00:00,SystemResetWarning,0819.9,5.00,000.00,025.4,024.6,000.0,033.9,027.1,10.1,0000.0,0002.96,0007.03,0001.66
2024-03-29 00:01:00,SystemResetWarning,0820.1,5.00,000.00,025.3,024.5,000.0,033.9,027.1,10.2,0000.0,0002.94,0006.43,0001.66
2024-03-29 00:02:00,SystemResetWarning,0819.9,4.99,000.00,025.3,024.5,000.0,033.9,027.1,10.2,0000.0,0002.95,0007.11,0001.65
2024-03-29 00:03:00,SystemResetWarning,0820.0,5.00,000.00,025.3,024.5,000.0,033.9,027.1,10.4,0000.0,0002.99,0006.96,0001.65
2024-03-29 00:04:00,SystemResetWarning,0819.9,5.00,000.00,025.3,024.5,000.0,033.9,027.1,10.3,0000.0,0003.01,0007.00,0001.66
2024-03-29 00:05:00,SystemResetWarning,0819.8,5.00,000.00,025.3,024.5,000.0,033.9,027.1,10.1,0000.0,0003.09,0007.18,0001.66
2024-03-29 00:06:00,SystemResetWarning,0819.8,5.00,000.00,025.3,024.5,000.0,033.9,027.1,10.3,0000.0,0003.08,0007.22,0001.66
2024-03-29 00:07:00,SystemResetWarning,0820.1,5.00,000.00,025.3,024.4,000.0,033.9,027.1,10.4,0000.0,0003.08,0007.24,0001.66
2024-03-29 00:08:00,SystemResetWarning,0819.8,5.00,000.00,025.3,024.4,000.0,033.9,027.1,10.6,0000.0,0003.04,0007.12,0001.66
2024-03-29 00:09:00,SystemResetWarning,0819.8,5.00,000.00,025.3,024.4,000.0,033.9,027.1,10.2,0000.0,0002.96,0006.76,0001.64
2024-03-29 00:10:00,SystemResetWarning,0820.2,5.00,000.00,025.3,024.4,000.0,033.9,027.1,10.5,0000.0,0002.99,0006.80,0001.65
2024-03-29 00:11:00,SystemResetWarning,0819.9,5.00,000.00,025.3,024.4,000.0,033.9,027.1,10.6,0000.0,0002.97,0006.89,0001.65
2024-03-29 00:12:00,SystemResetWarning,0819.8,5.00,000.00,025.3,024.4,000.0,033.9,027.1,10.8,0000.0,0002.98,0007.00,0001.64
2024-03-29 00:13:00,SystemResetWarning,0819.9,5.00,000.00,025.3,024.4,000.0,033.9,027.1,10.9,0000.0,0003.02,0005.96,0001.65
2024-03-29 00:14:00,SystemResetWarning,0820.0,5.00,000.00,025.3,024.4,000.0,033.9,027.1,10.8,0000.0,0002.94,0006.09,0001.63
2024-03-29 00:15:00,SystemResetWarning,0819.8,5.00,000.00,025.3,024.4,000.0,033.8,027.1,11.1,0000.0,0002.94,0006.24,0001.62
2024-03-29 00:16:00,SystemResetWarning,0819.9,5.01,000.00,025.3,024.4,000.0,033.8,027.1,11.1,0000.0,0002.88,0006.16,0001.62
2024-03-29 00:17:00,SystemResetWarning,0819.9,5.00,000.00,025.3,024.4,000.0,033.8,027.1,11.1,0000.0,0002.86,0006.14,0001.62
2024-03-29 00:18:00,SystemResetWarning,0819.9,5.00,000.00,025.3,024.4,000.0,033.8,027.1,10.7,0000.0,0002.92,0006.30,0001.63
2024-03-29 00:19:00,SystemResetWarning,0819.9,5.01,000.00,025.3,024.4,000.0,033.8,027.1,11.0,0000.0,0002.89,0006.17,0001.62
2024-03-29 00:20:00,SystemResetWarning,0820.0,4.99,000.00,025.3,024.4,000.0,033.8,027.1,11.0,0000.0,0002.90,0006.20,0001.64
2024-03-29 00:21:00,SystemResetWarning,0819.8,4.99,000.00,025.3,024.4,000.0,033.8,027.1,11.2,0000.0,0002.88,0006.18,0001.65
2024-03-29 00:22:00,SystemResetWarning,0819.8,4.99,000.00,025.2,024.3,000.0,033.8,027.0,11.0,0000.0,0002.85,0006.01,0001.64
2024-03-29 00:23:00,SystemResetWarning,0819.8,5.01,000.00,025.2,024.3,000.0,033.8,027.0,11.2,0000.0,0002.84,0005.95,0001.65
2024-03-29 00:24:00,SystemResetWarning,0819.7,5.01,000.00,025.2,024.3,000.0,033.8,027.0,11.2,0000.0,0002.81,0005.82,0001.65
2024-03-29 00:25:00,SystemResetWarning,0819.8,5.01,000.00,025.2,024.3,000.0,033.8,027.0,11.2,0000.0,0002.82,0005.56,0001.67
2024-03-29 00:26:00,SystemResetWarning,0820.0,4.98,000.00,025.2,024.3,000.0,033.8,027.0,11.3,0000.0,0002.81,0005.26,0001.69
2024-03-29 00:27:00,SystemResetWarning,0819.9,4.99,000.00,025.2,024.3,000.0,033.8,027.0,11.2,0000.0,0002.80,0005.11,0001.70
2024-03-29 00:28:00,SystemResetWarning,0819.9,5.01,000.00,025.2,024.2,000.0,033.8,027.0,11.0,0000.0,0002.80,0004.99,0001.71
2024-03-29 00:29:00,SystemResetWarning,0819.9,5.01,000.00,025.2,024.2,000.0,033.8,027.0,10.8,0000.0,0002.74,0004.81,0001.72
2024-03-29 00:30:00,SystemResetWarning,0819.9,4.99,000.00,025.2,024.2,000.0,033.8,027.0,11.2,0000.0,0002.73,0004.84,0001.72
2024-03-29 00:31:00,SystemResetWarning,0820.0,4.99,000.00,025.2,024.2,000.0,033.8,027.0,11.3,0000.0,0002.81,0005.06,0001.73
2024-03-29 00:32:00,SystemResetWarning,0820.1,4.99,000.00,025.2,024.2,000.0,033.8,026.9,11.2,0000.0,0002.84,0005.08,0001.73
2024-03-29 00:33:00,SystemResetWarning,0820.1,5.00,000.00,025.2,023.9,000.0,033.8,025.1,11.1,0000.0,0002.86,0005.23,0001.74
2024-03-29 00:34:00,SystemResetWarning,0820.0,5.02,000.00,025.1,024.2,000.0,033.8,026.9,11.1,0000.0,0002.84,0005.23,0001.73
2024-03-29 00:35:00,SystemResetWarning,0819.8,4.99,000.00,025.1,024.2,000.0,033.8,026.9,11.2,0000.0,0002.79,0005.09,0001.73
2024-03-29 00:36:00,SystemResetWarning,0819.8,4.99,000.00,025.1,024.1,000.0,033.7,026.9,11.0,0000.0,0002.77,0005.30,0001.72
2024-03-29 00:37:00,SystemResetWarning,0819.8,4.99,000.00,025.1,024.1,000.0,033.7,026.9,11.1,0000.0,0002.76,0005.32,0001.72
2024-03-29 00:38:00,SystemResetWarning,0819.8,5.00,000.00,025.1,024.1,000.0,033.7,026.9,10.8,0000.0,0002.78,0005.46,0001.72
2024-03-29 00:39:00,SystemResetWarning,0819.9,5.02,000.00,025.1,024.1,000.0,033.7,026.9,10.9,0000.0,0002.88,0005.74,0001.71
2024-03-29 00:40:00,SystemResetWarning,0819.8,5.00,000.00,025.1,024.1,000.0,033.7,026.9,11.1,0000.0,0002.96,0005.96,0001.71
2024-03-29 00:41:00,SystemResetWarning,0820.0,5.00,000.00,025.1,024.1,000.0,033.7,026.9,11.1,0000.0,0002.95,0005.87,0001.71
2024-03-29 00:42:00,SystemResetWarning,0820.2,5.00,000.00,025.1,024.1,000.0,033.7,026.8,11.1,0000.0,0002.87,0005.57,0001.70
2024-03-29 00:43:00,SystemResetWarning,0820.0,4.99,000.00,025.0,024.0,000.0,033.7,026.8,11.1,0000.0,0002.89,0005.68,0001.69
2024-03-29 00:44:00,SystemResetWarning,0820.0,4.99,000.00,025.0,024.0,000.0,033.7,026.8,11.0,0000.0,0002.90,0005.66,0001.70
2024-03-29 00:45:00,SystemResetWarning,0819.9,5.01,000.00,025.0,024.0,000.0,033.7,026.8,11.1,0000.0,0002.95,0005.72,0001.71
2024-03-29 00:46:00,SystemResetWarning,0819.9,5.00,000.00,025.0,024.0,000.0,033.7,026.8,11.2,0000.0,0003.00,0006.05,0001.71
2024-03-29 00:47:00,SystemResetWarning,0819.9,4.99,000.00,025.0,024.0,000.0,033.7,026.8,11.0,0000.0,0003.00,0006.57,0001.71
2024-03-29 00:48:00,SystemResetWarning,0820.0,4.99,000.00,025.0,024.0,000.0,033.6,026.8,11.1,0000.0,0003.00,0006.49,0001.71
2024-03-29 00:49:00,SystemResetWarning,0819.9,5.01,000.00,025.0,024.0,000.0,033.6,026.8,11.1,0000.0,0002.98,0006.54,0001.70
2024-03-29 00:50:00,SystemResetWarning,0819.9,5.02,000.00,025.0,024.0,000.0,033.6,026.8,10.8,0000.0,0002.89,0006.47,0001.71
2024-03-29 00:51:00,SystemResetWarning,0820.1,4.99,000.00,025.0,023.9,000.0,033.6,026.7,11.1,0000.0,0002.78,0006.22,0001.70
2024-03-29 00:52:00,SystemResetWarning,0819.9,4.99,000.00,025.0,023.9,000.0,033.6,026.7,11.2,0000.0,0002.79,0006.28,0001.71
2024-03-29 00:53:00,SystemResetWarning,0820.3,5.00,000.00,024.9,023.9,000.0,033.6,026.7,11.2,0000.0,0002.92,0006.64,0001.71
2024-03-29 00:54:00,SystemResetWarning,0819.9,5.00,000.00,024.9,023.9,000.0,033.6,026.7,11.1,0000.0,0002.95,0006.71,0001.70
2024-03-29 00:55:00,SystemResetWarning,0819.9,5.01,000.00,024.9,023.9,000.0,033.6,026.7,10.7,0000.0,0002.89,0006.53,0001.69
2024-03-29 00:56:00,SystemResetWarning,0819.9,5.01,000.00,024.9,023.8,000.0,033.6,026.7,10.9,0000.0,0002.85,0006.39,0001.69
2024-03-29 00:57:00,SystemResetWarning,0819.8,5.00,000.00,024.9,023.8,000.0,033.6,026.7,10.9,0000.0,0002.83,0006.14,0001.69
2024-03-29 00:58:00,SystemResetWarning,0819.9,5.00,000.00,024.9,023.8,000.0,033.5,026.6,10.9,0000.0,0002.87,0005.49,0001.68
2024-03-29 00:59:00,SystemResetWarning,0819.9,5.00,000.00,024.9,023.8,000.0,033.5,026.6,11.0,0000.0,0002.89,0005.75,0001.69
